Location: Del Amo
(33.8464°N, 118.2104°W)
Time: 17:55:30
(UTC+00:00)

Vanguard 3 - Pass Details

Date: 14 September 2024
Orbit: 507 x 3224 km, 33.4° (Epoch: 05 October)

Event Time Altitude Azimuth Distance (km) Brightness Sun altitude
Rises 22:21:55 0° 282° (WNW) 5,907 12.0 42.7°
Reaches altitude 10° 22:27:57 10° 267° (W) 4,309 11.8 41.6°
Maximum altitude 22:34:26 18° 230° (SW) 3,025 11.5 40.5°
Drops below altitude 10° 22:39:16 10° 191° (S) 3,022 10.7 39.6°
Sets 22:42:30 0° 171° (S) 3,596 10.7 39.0°
